Tracking 29747 objects as of 10-Oct-2024
HD Live streaming from Space Station
objects crossing your sky now

DELTA 1 DEB

Track DELTA 1 DEB now!
10-day predictions


NORAD ID: 21438
Int'l Code: 1975-052DW
Perigee: 1,090.4 km
Apogee: 1,211.9 km
Inclination: 99.7 °
Period: 108.2 minutes
Semi major axis: 7522 km
RCS: 0.0118 m2 (small)
Launch date: June 12, 1975
Source: United States (US)
Launch site: AIR FORCE WESTERN TEST RANGE (AFWTR)

Note: This is SATELLITE DEBRIS
Your satellite tracking list
Your tracking list is empty




NASA's NSSDC Master Catalog

Two Line Element Set (TLE):
1 21438U 75052DW  24283.58715306  .00000608  00000-0  13511-2 0  9998
2 21438  99.6947 222.1767 0080742 315.3660 219.8797 13.30728975622352
Source of the keplerian elements: AFSPC